STARLINK-11306, 61254

Orbit data source: Space-Track

STARLINK-11306, 61254 is a payload satellite owned by SpaceX/Seattle (US) in LEO that was launched on Wed, 25 Sep 2024 UTC via an FALCON 9 launch vehicle from the Air Force Western Test Range (AFWTR). Payloads include a variety of satellites, spacecraft, and rockets equipped with specific instruments for various scientific and technological missions. These include communications satellites like Starlink; space stations such as the ISS; scientific satellites like the Hubble; Earth observation satellites from companies like Planet Labs, Umbra, and HawkEye 360; GPS; miniature CubeSats for education and research; and military/defense satellites.

Loading next visibility...
STARLINK-11306 details
Identifier
61254, 2024-175M
Orbit
LEO
Last TLE update21 hours ago
Origin
Flag of USSpaceX/Seattle (US)
ManufacturerSpaceX/Seattle
MissionOperational spacecraft
Bus & MotorSTARLINK V2M, Unknown motor
Mass730 kg wet, ~700 kg dry
Launch date (UTC)
2024-09-25 (3 months ago)
Launch vehicle
FALCON 9
Launch site
Air Force Western Test Range (AFWTR)
Object type
Payload
Rocket body
Debris
Shape & HBRUnknown
Radar Cross SectionLarge (>1 m²)

Expand to show TLE details & history

TLE from 21 hours ago
0 STARLINK-11306
1 61254U 24175M   24355.65359577  .00001296  00000-0  15555-4 0  9996
2 61254  53.1563  85.3428 0001221  86.8141 273.3017 15.69712542 14827
Epoch: 2024-12-20T15:41Z
Definitive object data (Epoch: 2024-12-20T15:41:10.674Z)
Latitude0.00001°
Longitude120.33232°
Altitude360.587 km
Speed7.694 km/s
True Right ascension05h 41m 22s
True Declination0° 00' 00"
Sunlit
Object was in full shadow at TLE epoch
Visualization TLE readout
Latitude-19.4697°
Longitude-48.65545°
Altitude365.448 km
Speed7.69 km/s
Apparent Right ascension20h 33m 14s
Apparent Declination-35° 08' 54"
Sunlit
Object is in daylight
Visualization observer readout
Local Sidereal Time11:26:52
Azimuth96.134° ESE
Elevation-55.589°
Doppler factor1
Orbital elements
Apogee altitude360.803 km
Perigee altitude359.158 km
Semi-major axis6,738.118 km
Eccentricity0.0001221
Inclination53.1563°
RAAN85.3428°
Arg. of periapsis86.8141°
True anomaly273.28773°
Mean anomaly273.3017°
Eccentric anomaly273.29472°
Mean motion3.92406 °/min
BSTAR0.000015555
Orbital period91.74 mins
Loading maneuver chart data...
Loading historical data...
Loading historical data...
Loading historical data...
Loading historical data...
Loading historical data...
Loading historical data...
Loading historical data...

STARLINK-11306 Visibility forecast

Observer location: undefined°, undefined

Span
Click to sort rows by Start time (UTC) header in descending order
Start Az.
Max El. time (UTC)
Max El. Az.
Max El.
End time (UTC)
End Az.
4 mins2024-12-21 15:05:04.718Z331.148° NNW2024-12-21 15:07:04.718Z27.423° NE29.383°2024-12-21 15:09:04.718Z93.529° ESE
4 mins2024-12-22 09:10:04.718Z271.098° WNW2024-12-22 09:11:04.718Z303.142° NW29.588°2024-12-22 09:14:04.718Z34.348° NE
|